Weather History for 03768 - October, 2013

Change the Weather History Date:

Tuesday, October 1, 2013

  Actual Average Record
Temperature  
Mean Temperature 54 °F -  
Max Temperature 60 °F - - ()
Min Temperature 48 °F - - ()
Degree Days  
Heating Degree Days 11    
Growing Degree Days 4 (Base 50)    
Moisture  
Dew Point 54 °F    
Average Humidity 87    
Maximum Humidity 100    
Minimum Humidity 67    
Precipitation  
Precipitation 0.00 in - - ()
Sea Level Pressure  
Sea Level Pressure 29.78 in    
Wind  
Wind Speed 7 mph ()    
Max Wind Speed 13 mph    
Max Gust Speed -    
Visibility 5.2 miles    
Events      
T = Trace of Precipitation, MM = Missing Value Source: Averaged Metar Reports

Daily Weather History Graph

Daily Weather History Graph

Search for Another Location

Airport or City:

Trip Planner

Search our weather history database for the weather conditions in past years. The results will help you decide how hot, cold, wet, or windy it might be!

Date:

Astronomy

Oct. 01, 2013 Rise Set
Actual Time 7:03 AM BST 6:40 PM BST
Civil Twilight 6:30 AM BST 7:13 PM BST
Nautical Twilight 5:52 AM BST 7:52 PM BST
Astronomical Twilight 5:12 AM BST 8:31 PM BST
Moon 3:02 AM BST (10/1) 4:53 PM BST (10/1)
Length of Visible Light 12h 43m
Length of Day
11h 36m
Waning Crescent, 13% of the Moon is Illuminated
Oct 1
Waning Crescent
Oct 5
New
Oct 12
First Quarter
Oct 19
Full
Oct 27
Last Quarter

Hourly Weather History & Observations

Time (BST) Temp. Dew Point Humidity Pressure Visibility Wind Dir Wind Speed Gust Speed Precip Events Conditions
12:50 AM 53 °F 50 °F 85% 29.78 in 4 mi East 4.6 mph - -   Scattered Clouds
3:50 AM 52 °F 49 °F 88% 29.77 in 3 mi ESE 2.3 mph - -   Mostly Cloudy
6:50 AM 48 °F 46 °F 89% 29.77 in 2 mi ESE 3.5 mph - -   Scattered Clouds
6:50 AM 50.0 °F 50.0 °F 100% 29.77 in 3.1 mi Variable 1.2 mph - N/A   Partly Cloudy
7:20 AM 50.0 °F 50.0 °F 100% 29.77 in 3.1 mi Calm Calm - N/A   Mostly Cloudy
8:20 AM 53.6 °F 53.6 °F 100% 29.77 in 3.7 mi ENE 5.8 mph - N/A   Mostly Cloudy
8:50 AM 53.6 °F 51.8 °F 94% 29.77 in 3.7 mi ENE 8.1 mph - N/A   Mostly Cloudy
9:20 AM 55.4 °F 53.6 °F 94% 29.77 in 3.7 mi ENE 9.2 mph - N/A   Mostly Cloudy
9:50 AM 56 °F 51 °F 80% 29.78 in 4 mi East 9.2 mph - -   Mostly Cloudy
9:50 AM 57.2 °F 53.6 °F 88% 29.77 in 4.3 mi East 10.4 mph - N/A   Mostly Cloudy
10:20 AM 57.2 °F 53.6 °F 88% 29.77 in 5.0 mi East 12.7 mph - N/A   Partly Cloudy
10:50 AM 57.2 °F 53.6 °F 88% 29.77 in 6.2 mi East 10.4 mph - N/A   Partly Cloudy
11:20 AM 59.0 °F 55.4 °F 88% 29.77 in 5.0 mi East 8.1 mph - N/A   Scattered Clouds
11:50 AM 59.0 °F 55.4 °F 88% 29.77 in 5.6 mi East 8.1 mph - N/A   Mostly Cloudy
12:20 PM 59.0 °F 55.4 °F 88% 29.77 in 5.6 mi East 10.4 mph - N/A   Mostly Cloudy
12:50 PM 60 °F 54 °F 76% 29.79 in 6 mi East 10.4 mph - -   Mostly Cloudy
12:50 PM 60.8 °F 57.2 °F 88% 29.80 in 5.6 mi East 11.5 mph - N/A   Scattered Clouds
1:20 PM 60.8 °F 57.2 °F 88% 29.77 in 5.6 mi East 11.5 mph - N/A   Mostly Cloudy
1:50 PM 60.8 °F 57.2 °F 88% 29.77 in 5.6 mi East 9.2 mph - N/A   Mostly Cloudy
2:20 PM 60.8 °F 57.2 °F 88% 29.77 in 5.6 mi East 11.5 mph - N/A   Mostly Cloudy
2:50 PM 60.8 °F 59.0 °F 94% 29.77 in 3.7 mi East 9.2 mph - N/A   Light Drizzle
3:20 PM 60.8 °F 59.0 °F 94% 29.77 in 5.0 mi ESE 9.2 mph - N/A   Mostly Cloudy
3:50 PM 60 °F 56 °F 83% 29.78 in 5 mi ESE 9.2 mph - -   Overcast
3:50 PM 60.8 °F 59.0 °F 94% 29.77 in 5.6 mi ESE 10.4 mph - N/A   Mostly Cloudy
4:20 PM 60.8 °F 59.0 °F 94% 29.80 in 5.6 mi ESE 9.2 mph - N/A   Mostly Cloudy
4:50 PM 59.0 °F 57.2 °F 94% 29.77 in 5.6 mi East 10.4 mph - N/A   Mostly Cloudy
5:20 PM 59.0 °F 57.2 °F 94% 29.77 in 5.6 mi East 10.4 mph - N/A   Mostly Cloudy
5:50 PM 59.0 °F 55.4 °F 88% 29.77 in 6.2 mi ESE 8.1 mph - N/A   Mostly Cloudy
6:20 PM 59.0 °F 53.6 °F 82% 29.77 in 6.2 mi East 11.5 mph - N/A   Mostly Cloudy
6:50 PM 59 °F 52 °F 71% 29.79 in 9 mi East 8.1 mph - -   Overcast
6:50 PM 59.0 °F 53.6 °F 82% 29.80 in 6.2 mi East 9.2 mph - N/A   Mostly Cloudy
7:20 PM 59.0 °F 53.6 °F 82% 29.80 in - ESE 9.2 mph - N/A   Mostly Cloudy
8:20 PM 59.0 °F 51.8 °F 77% 29.80 in 6.2 mi East 6.9 mph - N/A   Mostly Cloudy
9:20 PM 59.0 °F 51.8 °F 77% 29.80 in 6.2 mi East 8.1 mph - N/A   Mostly Cloudy
9:50 PM 59 °F 51 °F 67% 29.81 in 10 mi East 9.2 mph - -   Overcast